Time,TemperatureF,DewpointF,PressureIn,WindDirection,WindDirectionDegrees,WindSpeedMPH,WindSpeedGustMPH,Humidity,HourlyPrecipIn,Conditions,Clouds,dailyrainin,SoftwareType,DateUTC
2013-03-28 00:00:00,55.2,11.1,29.72,NE,45,0.0,0.0,17,0.00,CLR,,0.00,WeatherDisplay:10.37,2013-03-28 06:00:00,
2013-03-28 00:05:00,55.0,10.9,29.72,NNE,22,1.2,0.0,17,0.00,CLR,,0.00,WeatherDisplay:10.37,2013-03-28 06:05:00,
2013-03-28 00:10:00,54.9,10.8,29.72,NE,45,1.2,0.0,17,0.00,CLR,,0.00,WeatherDisplay:10.37,2013-03-28 06:10:00,
2013-03-28 00:15:00,54.7,10.6,29.72,ENE,68,0.9,0.9,17,0.00,CLR,,0.00,WeatherDisplay:10.37,2013-03-28 06:15:00,
2013-03-28 00:20:00,54.7,11.9,29.72,NE,45,0.0,0.0,18,0.00,CLR,,0.00,WeatherDisplay:10.37,2013-03-28 06:20:00,
2013-03-28 00:25:00,54.7,11.9,29.73,NNE,22,0.0,0.0,18,0.00,CLR,,0.00,WeatherDisplay:10.37,2013-03-28 06:25:00,
2013-03-28 00:30:00,54.5,11.8,29.73,NNE,22,0.0,0.0,18,0.00,CLR,,0.00,WeatherDisplay:10.37,2013-03-28 06:30:00,
2013-03-28 00:35:00,54.5,11.8,29.73,NNE,22,0.0,0.0,18,0.00,CLR,,0.00,WeatherDisplay:10.37,2013-03-28 06:35:00,
2013-03-28 00:40:00,54.5,11.8,29.73,NNE,22,0.0,0.0,18,0.00,CLR,,0.00,WeatherDisplay:10.37,2013-03-28 06:40:00,
2013-03-28 00:45:00,54.3,11.6,29.73,ENE,68,1.2,1.2,18,0.00,CLR,,0.00,WeatherDisplay:10.37,2013-03-28 06:45:00,
2013-03-28 00:50:00,54.3,11.6,29.73,NE,45,0.0,0.0,18,0.00,CLR,,0.00,WeatherDisplay:10.37,2013-03-28 06:50:00,
2013-03-28 00:55:00,54.3,11.6,29.73,ENE,68,0.0,0.0,18,0.00,CLR,,0.00,WeatherDisplay:10.37,2013-03-28 06:55:00,
2013-03-28 01:00:00,54.1,11.5,29.73,ENE,68,0.0,0.0,18,0.00,CLR,,0.00,WeatherDisplay:10.37,2013-03-28 07:00:00,
2013-03-28 01:05:00,54.1,11.5,29.73,NE,45,0.0,0.0,18,0.00,CLR,,0.00,WeatherDisplay:10.37,2013-03-28 07:05:00,
2013-03-28 01:10:00,54.0,11.3,29.73,North,0,0.0,0.0,18,0.00,CLR,,0.00,WeatherDisplay:10.37,2013-03-28 07:10:00,
2013-03-28 01:15:00,54.0,11.3,29.73,North,0,0.0,0.0,18,0.00,CLR,,0.00,WeatherDisplay:10.37,2013-03-28 07:15:00,
2013-03-28 01:20:00,54.0,11.3,29.73,North,0,0.0,0.0,18,0.00,CLR,,0.00,WeatherDisplay:10.37,2013-03-28 07:20:00,
2013-03-28 01:25:00,53.8,11.2,29.73,North,0,0.0,0.0,18,0.00,CLR,,0.00,WeatherDisplay:10.37,2013-03-28 07:25:00,
2013-03-28 01:30:00,53.6,11.0,29.73,ENE,68,0.5,0.5,18,0.00,CLR,,0.00,WeatherDisplay:10.37,2013-03-28 07:30:00,
2013-03-28 01:35:00,53.4,12.1,29.73,ENE,68,0.0,0.0,19,0.00,CLR,,0.00,WeatherDisplay:10.37,2013-03-28 07:35:00,
2013-03-28 01:40:00,53.4,13.3,29.73,ENE,68,0.0,0.0,20,0.00,CLR,,0.00,WeatherDisplay:10.37,2013-03-28 07:40:00,
2013-03-28 01:45:00,53.2,13.1,29.73,ENE,68,0.0,0.0,20,0.00,CLR,,0.00,WeatherDisplay:10.37,2013-03-28 07:45:00,
2013-03-28 01:50:00,53.2,13.1,29.73,East,90,0.5,0.5,20,0.00,CLR,,0.00,WeatherDisplay:10.37,2013-03-28 07:50:00,
2013-03-28 01:55:00,53.1,13.0,29.73,East,90,1.2,1.2,20,0.00,CLR,,0.00,WeatherDisplay:10.37,2013-03-28 07:55:00,
2013-03-28 02:00:00,52.9,12.8,29.73,South,180,1.2,1.2,20,0.00,CLR,,0.00,WeatherDisplay:10.37,2013-03-28 08:00:00,
2013-03-28 02:05:00,52.9,12.8,29.73,East,90,0.0,0.0,20,0.00,CLR,,0.00,WeatherDisplay:10.37,2013-03-28 08:05:00,
2013-03-28 02:10:00,52.9,12.8,29.73,NNW,338,0.5,0.5,20,0.00,CLR,,0.00,WeatherDisplay:10.37,2013-03-28 08:10:00,
2013-03-28 02:15:00,52.9,12.8,29.73,East,90,1.2,1.2,20,0.00,CLR,,0.00,WeatherDisplay:10.37,2013-03-28 08:15:00,
2013-03-28 02:20:00,52.9,12.8,29.73,East,90,1.2,0.0,20,0.00,CLR,,0.00,WeatherDisplay:10.37,2013-03-28 08:20:00,
2013-03-28 02:25:00,52.7,12.7,29.73,SSE,158,0.0,0.0,20,0.00,CLR,,0.00,WeatherDisplay:10.37,2013-03-28 08:25:00,
2013-03-28 02:30:00,52.7,13.8,29.73,East,90,0.5,0.5,21,0.00,CLR,,0.00,WeatherDisplay:10.37,2013-03-28 08:30:00,
2013-03-28 02:35:00,52.5,13.6,29.73,NE,45,0.0,0.0,21,0.00,CLR,,0.00,WeatherDisplay:10.37,2013-03-28 08:35:00,
2013-03-28 02:40:00,52.3,13.5,29.73,NE,45,0.0,0.0,21,0.00,CLR,,0.00,WeatherDisplay:10.37,2013-03-28 08:40:00,
2013-03-28 02:45:00,52.3,13.5,29.73,NNE,22,0.0,0.0,21,0.00,CLR,,0.00,WeatherDisplay:10.37,2013-03-28 08:45:00,
2013-03-28 02:50:00,52.2,13.3,29.73,SE,135,0.0,0.0,21,0.00,CLR,,0.00,WeatherDisplay:10.37,2013-03-28 08:50:00,
2013-03-28 02:55:00,52.2,13.3,29.73,SE,135,0.0,0.0,21,0.00,CLR,,0.00,WeatherDisplay:10.37,2013-03-28 08:55:00,
2013-03-28 03:00:00,52.0,13.2,29.74,SSE,158,1.2,1.2,21,0.00,CLR,,0.00,WeatherDisplay:10.37,2013-03-28 09:00:00,
2013-03-28 03:05:00,51.8,13.0,29.74,SE,135,0.9,0.9,21,0.00,CLR,,0.00,WeatherDisplay:10.37,2013-03-28 09:05:00,
2013-03-28 03:10:00,51.8,13.0,29.74,SE,135,0.2,0.2,21,0.00,CLR,,0.00,WeatherDisplay:10.37,2013-03-28 09:10:00,
2013-03-28 03:15:00,51.8,13.0,29.73,ESE,112,2.3,2.3,21,0.00,CLR,,0.00,WeatherDisplay:10.37,2013-03-28 09:15:00,
2013-03-28 03:20:00,51.8,13.0,29.73,SE,135,1.2,1.2,21,0.00,CLR,,0.00,WeatherDisplay:10.37,2013-03-28 09:20:00,
2013-03-28 03:25:00,52.0,13.2,29.73,East,90,3.5,3.5,21,0.00,CLR,,0.00,WeatherDisplay:10.37,2013-03-28 09:25:00,
2013-03-28 03:30:00,52.2,13.3,29.72,ESE,112,1.4,1.4,21,0.00,CLR,,0.00,WeatherDisplay:10.37,2013-03-28 09:30:00,
2013-03-28 03:35:00,52.3,13.5,29.72,ENE,68,1.2,0.0,21,0.00,CLR,,0.00,WeatherDisplay:10.37,2013-03-28 09:35:00,
2013-03-28 03:40:00,52.3,13.5,29.72,East,90,1.2,1.6,21,0.00,CLR,,0.00,WeatherDisplay:10.37,2013-03-28 09:40:00,
2013-03-28 03:45:00,52.5,13.6,29.72,ESE,112,1.2,1.2,21,0.00,CLR,,0.00,WeatherDisplay:10.37,2013-03-28 09:45:00,
2013-03-28 03:50:00,52.3,13.5,29.72,ESE,112,1.2,0.0,21,0.00,CLR,,0.00,WeatherDisplay:10.37,2013-03-28 09:50:00,
2013-03-28 03:55:00,52.3,13.5,29.72,SE,135,0.2,0.2,21,0.00,CLR,,0.00,WeatherDisplay:10.37,2013-03-28 09:55:00,
2013-03-28 04:00:00,52.2,13.3,29.72,SE,135,0.2,0.2,21,0.00,CLR,,0.00,WeatherDisplay:10.37,2013-03-28 10:00:00,
2013-03-28 04:05:00,52.2,13.3,29.72,SE,135,0.0,0.0,21,0.00,CLR,,0.00,WeatherDisplay:10.37,2013-03-28 10:05:00,
2013-03-28 04:10:00,52.2,13.3,29.72,SE,135,0.0,0.0,21,0.00,CLR,,0.00,WeatherDisplay:10.37,2013-03-28 10:10:00,
2013-03-28 04:15:00,52.0,13.2,29.72,SE,135,0.0,0.0,21,0.00,CLR,,0.00,WeatherDisplay:10.37,2013-03-28 10:15:00,
2013-03-28 04:20:00,51.8,13.0,29.72,SE,135,0.0,0.0,21,0.00,CLR,,0.00,WeatherDisplay:10.37,2013-03-28 10:20:00,
2013-03-28 04:25:00,51.8,13.0,29.71,East,90,2.3,0.0,21,0.00,CLR,,0.00,WeatherDisplay:10.37,2013-03-28 10:25:00,
2013-03-28 04:30:00,51.8,14.1,29.72,ENE,68,0.0,0.0,22,0.00,CLR,,0.00,WeatherDisplay:10.37,2013-03-28 10:30:00,
2013-03-28 04:35:00,51.8,13.0,29.72,East,90,0.0,0.0,21,0.00,CLR,,0.00,WeatherDisplay:10.37,2013-03-28 10:35:00,
2013-03-28 04:40:00,51.4,12.7,29.72,ESE,112,0.0,0.0,21,0.00,CLR,,0.00,WeatherDisplay:10.37,2013-03-28 10:40:00,
2013-03-28 04:45:00,51.3,12.6,29.72,ESE,112,0.0,0.0,21,0.00,CLR,,0.00,WeatherDisplay:10.37,2013-03-28 10:45:00,
2013-03-28 04:50:00,50.9,13.3,29.72,ENE,68,0.5,0.5,22,0.00,CLR,,0.00,WeatherDisplay:10.37,2013-03-28 10:50:00,
2013-03-28 04:55:00,50.9,13.3,29.72,East,90,1.2,0.0,22,0.00,CLR,,0.00,WeatherDisplay:10.37,2013-03-28 10:55:00,
2013-03-28 05:00:00,50.7,13.2,29.72,East,90,0.0,0.0,22,0.00,CLR,,0.00,WeatherDisplay:10.37,2013-03-28 11:00:00,
2013-03-28 05:05:00,50.4,12.9,29.72,East,90,0.0,0.0,22,0.00,CLR,,0.00,WeatherDisplay:10.37,2013-03-28 11:05:00,
2013-03-28 05:10:00,50.2,12.7,29.72,East,90,0.0,0.0,22,0.00,CLR,,0.00,WeatherDisplay:10.37,2013-03-28 11:10:00,
2013-03-28 05:15:00,50.0,13.6,29.72,East,90,0.7,0.7,23,0.00,CLR,,0.00,WeatherDisplay:10.37,2013-03-28 11:15:00,
2013-03-28 05:20:00,50.0,13.6,29.72,NNE,22,1.2,0.0,23,0.00,CLR,,0.00,WeatherDisplay:10.37,2013-03-28 11:20:00,
2013-03-28 05:25:00,50.0,13.6,29.73,North,0,0.0,0.0,23,0.00,CLR,,0.00,WeatherDisplay:10.37,2013-03-28 11:25:00,
2013-03-28 05:30:00,49.8,13.4,29.73,NNE,22,0.2,0.2,23,0.00,CLR,,0.00,WeatherDisplay:10.37,2013-03-28 11:30:00,
2013-03-28 05:35:00,49.8,13.4,29.73,NNE,22,0.0,0.0,23,0.00,CLR,,0.00,WeatherDisplay:10.37,2013-03-28 11:35:00,
2013-03-28 05:40:00,49.5,14.1,29.73,NNE,22,0.0,0.0,24,0.00,CLR,,0.00,WeatherDisplay:10.37,2013-03-28 11:40:00,
2013-03-28 05:45:00,49.3,14.0,29.73,NE,45,0.0,0.0,24,0.00,CLR,,0.00,WeatherDisplay:10.37,2013-03-28 11:45:00,
2013-03-28 05:50:00,49.1,13.8,29.73,NE,45,0.0,0.0,24,0.00,CLR,,0.00,WeatherDisplay:10.37,2013-03-28 11:50:00,
2013-03-28 05:55:00,48.9,13.6,29.73,NNE,22,1.2,1.2,24,0.00,CLR,,0.00,WeatherDisplay:10.37,2013-03-28 11:55:00,
2013-03-28 06:00:00,48.7,13.5,29.73,NE,45,0.0,0.0,24,0.00,CLR,,0.00,WeatherDisplay:10.37,2013-03-28 12:00:00,
2013-03-28 06:05:00,48.4,13.2,29.74,NE,45,0.0,0.0,24,0.00,CLR,,0.00,WeatherDisplay:10.37,2013-03-28 12:05:00,
2013-03-28 06:10:00,48.2,13.0,29.74,NE,45,0.0,0.0,24,0.00,CLR,,0.00,WeatherDisplay:10.37,2013-03-28 12:10:00,
2013-03-28 06:15:00,47.8,13.7,29.74,NE,45,0.0,0.0,25,0.00,CLR,,0.00,WeatherDisplay:10.37,2013-03-28 12:15:00,
2013-03-28 06:20:00,47.7,13.5,29.74,WNW,292,0.0,0.0,25,0.00,CLR,,0.00,WeatherDisplay:10.37,2013-03-28 12:20:00,
2013-03-28 06:25:00,47.3,13.2,29.74,WNW,292,0.0,0.0,25,0.00,CLR,,0.00,WeatherDisplay:10.37,2013-03-28 12:25:00,
2013-03-28 06:30:00,47.1,13.0,29.74,WNW,292,0.2,0.2,25,0.00,CLR,,0.00,WeatherDisplay:10.37,2013-03-28 12:30:00,
2013-03-28 06:35:00,46.8,12.7,29.74,North,0,1.2,1.2,25,0.00,CLR,,0.00,WeatherDisplay:10.37,2013-03-28 12:35:00,
2013-03-28 06:40:00,46.6,14.3,29.74,NE,45,0.5,0.5,27,0.00,CLR,,0.00,WeatherDisplay:10.37,2013-03-28 12:40:00,
2013-03-28 06:45:00,46.4,14.2,29.74,ENE,68,0.0,0.0,27,0.00,CLR,,0.00,WeatherDisplay:10.37,2013-03-28 12:45:00,
2013-03-28 06:50:00,46.4,14.2,29.75,NE,45,0.0,0.0,27,0.00,CLR,,0.00,WeatherDisplay:10.37,2013-03-28 12:50:00,
2013-03-28 06:55:00,46.2,14.0,29.75,NE,45,0.0,0.0,27,0.00,CLR,,0.00,WeatherDisplay:10.37,2013-03-28 12:55:00,
2013-03-28 07:00:00,46.0,14.7,29.75,NNE,22,0.0,0.0,28,0.00,CLR,,0.00,WeatherDisplay:10.37,2013-03-28 13:00:00,
2013-03-28 07:05:00,45.9,15.3,29.74,NNE,22,0.0,0.0,29,0.00,CLR,,0.00,WeatherDisplay:10.37,2013-03-28 13:05:00,
2013-03-28 07:10:00,45.9,15.3,29.75,ENE,68,0.2,0.2,29,0.00,CLR,,0.00,WeatherDisplay:10.37,2013-03-28 13:10:00,
2013-03-28 07:15:00,45.9,15.3,29.75,ENE,68,0.0,0.0,29,0.00,CLR,,0.00,WeatherDisplay:10.37,2013-03-28 13:15:00,
2013-03-28 07:20:00,45.9,15.3,29.75,ENE,68,0.0,0.0,29,0.00,CLR,,0.00,WeatherDisplay:10.37,2013-03-28 13:20:00,
2013-03-28 07:25:00,45.7,15.2,29.75,ENE,68,0.0,0.0,29,0.00,CLR,,0.00,WeatherDisplay:10.37,2013-03-28 13:25:00,
2013-03-28 07:30:00,45.5,15.0,29.75,ENE,68,0.0,0.0,29,0.00,CLR,,0.00,WeatherDisplay:10.37,2013-03-28 13:30:00,
2013-03-28 07:35:00,45.3,14.9,29.75,East,90,0.0,0.0,29,0.00,CLR,,0.00,WeatherDisplay:10.37,2013-03-28 13:35:00,
2013-03-28 07:40:00,45.3,14.9,29.75,East,90,0.0,0.0,29,0.00,CLR,,0.00,WeatherDisplay:10.37,2013-03-28 13:40:00,
2013-03-28 07:45:00,45.1,15.5,29.76,ENE,68,0.0,0.0,30,0.00,CLR,,0.00,WeatherDisplay:10.37,2013-03-28 13:45:00,
2013-03-28 07:50:00,45.3,16.4,29.75,NNE,22,0.2,0.2,31,0.00,CLR,,0.00,WeatherDisplay:10.37,2013-03-28 13:50:00,
2013-03-28 07:55:00,45.9,16.9,29.76,East,90,0.0,0.0,31,0.00,CLR,,0.00,WeatherDisplay:10.37,2013-03-28 13:55:00,
2013-03-28 08:00:00,46.0,16.3,29.76,East,90,0.0,0.0,30,0.00,CLR,,0.00,WeatherDisplay:10.37,2013-03-28 14:00:00,
2013-03-28 08:05:00,46.2,16.4,29.76,ESE,112,0.0,0.0,30,0.00,CLR,,0.00,WeatherDisplay:10.37,2013-03-28 14:05:00,
2013-03-28 08:10:00,46.4,16.6,29.76,SSE,158,2.3,2.3,30,0.00,CLR,,0.00,WeatherDisplay:10.37,2013-03-28 14:10:00,
2013-03-28 08:15:00,46.9,17.1,29.76,ESE,112,1.2,0.0,30,0.00,CLR,,0.00,WeatherDisplay:10.37,2013-03-28 14:15:00,
2013-03-28 08:20:00,47.3,16.6,29.77,South,180,1.8,1.8,29,0.00,CLR,,0.00,WeatherDisplay:10.37,2013-03-28 14:20:00,
2013-03-28 08:25:00,47.7,16.9,29.77,ESE,112,0.5,0.5,29,0.00,CLR,,0.00,WeatherDisplay:10.37,2013-03-28 14:25:00,
2013-03-28 08:30:00,48.0,17.2,29.77,South,180,2.3,2.3,29,0.00,CLR,,0.00,WeatherDisplay:10.37,2013-03-28 14:30:00,
2013-03-28 08:35:00,48.7,17.9,29.77,SSE,158,2.3,2.3,29,0.00,CLR,,0.00,WeatherDisplay:10.37,2013-03-28 14:35:00,
2013-03-28 08:40:00,49.3,17.5,29.77,ESE,112,2.3,0.0,28,0.00,CLR,,0.00,WeatherDisplay:10.37,2013-03-28 14:40:00,
2013-03-28 08:45:00,50.0,18.1,29.78,SE,135,1.2,1.2,28,0.00,CLR,,0.00,WeatherDisplay:10.37,2013-03-28 14:45:00,
2013-03-28 08:50:00,50.7,17.9,29.78,South,180,2.3,2.3,27,0.00,CLR,,0.00,WeatherDisplay:10.37,2013-03-28 14:50:00,
2013-03-28 08:55:00,51.4,18.5,29.77,ESE,112,2.3,2.3,27,0.00,CLR,,0.00,WeatherDisplay:10.37,2013-03-28 14:55:00,
2013-03-28 09:00:00,52.2,18.3,29.77,South,180,1.2,5.4,26,0.00,CLR,,0.00,WeatherDisplay:10.37,2013-03-28 15:00:00,
2013-03-28 09:05:00,52.9,18.9,29.77,SW,225,3.5,3.5,26,0.00,CLR,,0.00,WeatherDisplay:10.37,2013-03-28 15:05:00,
2013-03-28 09:10:00,53.4,18.4,29.78,SE,135,2.3,2.3,25,0.00,CLR,,0.00,WeatherDisplay:10.37,2013-03-28 15:10:00,
2013-03-28 09:15:00,53.8,18.7,29.78,SE,135,2.3,0.0,25,0.00,CLR,,0.00,WeatherDisplay:10.37,2013-03-28 15:15:00,
2013-03-28 09:20:00,54.3,18.2,29.78,SW,225,1.2,1.2,24,0.00,CLR,,0.00,WeatherDisplay:10.37,2013-03-28 15:20:00,
2013-03-28 09:25:00,54.7,18.5,29.78,SSE,158,4.0,4.0,24,0.00,CLR,,0.00,WeatherDisplay:10.37,2013-03-28 15:25:00,
2013-03-28 09:30:00,55.0,18.9,29.78,SSW,202,0.0,0.5,24,0.00,CLR,,0.00,WeatherDisplay:10.37,2013-03-28 15:30:00,
2013-03-28 09:35:00,55.6,19.3,29.78,South,180,2.3,2.3,24,0.00,CLR,,0.00,WeatherDisplay:10.37,2013-03-28 15:35:00,
2013-03-28 09:40:00,55.9,18.6,29.78,SSW,202,1.8,1.8,23,0.00,CLR,,0.00,WeatherDisplay:10.37,2013-03-28 15:40:00,
2013-03-28 09:45:00,56.5,19.1,29.78,SE,135,2.3,2.3,23,0.00,CLR,,0.00,WeatherDisplay:10.37,2013-03-28 15:45:00,
2013-03-28 09:50:00,57.0,19.5,29.79,SSE,158,2.3,2.3,23,0.00,CLR,,0.00,WeatherDisplay:10.37,2013-03-28 15:50:00,
2013-03-28 09:55:00,57.6,18.9,29.79,WSW,248,1.2,1.4,22,0.00,CLR,,0.00,WeatherDisplay:10.37,2013-03-28 15:55:00,
2013-03-28 10:00:00,57.6,18.9,29.79,West,270,1.2,1.2,22,0.00,CLR,,0.00,WeatherDisplay:10.37,2013-03-28 16:00:00,
2013-03-28 10:05:00,58.5,19.7,29.79,SSW,202,2.9,2.9,22,0.00,CLR,,0.00,WeatherDisplay:10.37,2013-03-28 16:05:00,
2013-03-28 10:10:00,59.0,20.2,29.79,SE,135,2.3,2.3,22,0.00,CLR,,0.00,WeatherDisplay:10.37,2013-03-28 16:10:00,
2013-03-28 10:15:00,59.7,20.8,29.79,SW,225,3.5,3.5,22,0.00,CLR,,0.00,WeatherDisplay:10.37,2013-03-28 16:15:00,
2013-03-28 10:20:00,60.1,21.1,29.79,SW,225,1.2,1.2,22,0.00,CLR,,0.00,WeatherDisplay:10.37,2013-03-28 16:20:00,
2013-03-28 10:25:00,61.0,20.7,29.79,WSW,248,1.2,2.6,21,0.00,CLR,,0.00,WeatherDisplay:10.37,2013-03-28 16:25:00,
2013-03-28 10:30:00,61.5,21.2,29.79,WSW,248,4.6,4.6,21,0.00,CLR,,0.00,WeatherDisplay:10.37,2013-03-28 16:30:00,
2013-03-28 10:35:00,62.1,22.7,29.79,SE,135,2.3,0.0,22,0.00,CLR,,0.00,WeatherDisplay:10.37,2013-03-28 16:35:00,
2013-03-28 10:40:00,62.8,23.3,29.79,NNW,338,1.2,0.0,22,0.00,CLR,,0.00,WeatherDisplay:10.37,2013-03-28 16:40:00,
2013-03-28 10:45:00,63.9,23.1,29.79,SSE,158,4.6,4.6,21,0.00,CLR,,0.00,WeatherDisplay:10.37,2013-03-28 16:45:00,
2013-03-28 10:50:00,64.6,21.3,29.79,WSW,248,3.5,3.5,19,0.00,CLR,,0.00,WeatherDisplay:10.37,2013-03-28 16:50:00,
2013-03-28 10:55:00,64.8,21.5,29.79,SW,225,3.6,3.6,19,0.00,CLR,,0.00,WeatherDisplay:10.37,2013-03-28 16:55:00,
2013-03-28 11:00:00,64.6,21.3,29.79,SW,225,2.3,2.9,19,0.00,CLR,,0.00,WeatherDisplay:10.37,2013-03-28 17:00:00,
2013-03-28 11:05:00,65.5,22.1,29.79,SW,225,2.4,2.4,19,0.00,CLR,,0.00,WeatherDisplay:10.37,2013-03-28 17:05:00,
2013-03-28 11:10:00,65.8,21.1,29.79,WSW,248,4.6,4.6,18,0.00,CLR,,0.00,WeatherDisplay:10.37,2013-03-28 17:10:00,
2013-03-28 11:15:00,66.4,22.8,29.79,South,180,2.3,2.3,19,0.00,CLR,,0.00,WeatherDisplay:10.37,2013-03-28 17:15:00,
2013-03-28 11:20:00,68.0,22.9,29.79,SSE,158,2.3,2.3,18,0.00,CLR,,0.00,WeatherDisplay:10.37,2013-03-28 17:20:00,
2013-03-28 11:25:00,68.5,22.0,29.78,NNW,338,1.2,1.2,17,0.00,CLR,,0.00,WeatherDisplay:10.37,2013-03-28 17:25:00,
2013-03-28 11:30:00,68.7,22.1,29.78,South,180,3.8,3.8,17,0.00,CLR,,0.00,WeatherDisplay:10.37,2013-03-28 17:30:00,
2013-03-28 11:35:00,70.0,21.7,29.78,SW,225,5.4,5.4,16,0.00,CLR,,0.00,WeatherDisplay:10.37,2013-03-28 17:35:00,
2013-03-28 11:40:00,69.1,19.4,29.77,SW,225,6.9,6.9,15,0.00,CLR,,0.00,WeatherDisplay:10.37,2013-03-28 17:40:00,
2013-03-28 11:45:00,68.4,18.9,29.77,West,270,4.0,4.0,15,0.00,CLR,,0.00,WeatherDisplay:10.37,2013-03-28 17:45:00,
2013-03-28 11:50:00,68.4,18.9,29.77,NW,315,2.3,2.3,15,0.00,CLR,,0.00,WeatherDisplay:10.37,2013-03-28 17:50:00,
2013-03-28 11:55:00,68.7,19.1,29.77,NNW,338,2.3,2.3,15,0.00,CLR,,0.00,WeatherDisplay:10.37,2013-03-28 17:55:00,
2013-03-28 12:00:00,69.3,19.6,29.77,WSW,248,4.6,4.6,15,0.00,CLR,,0.00,WeatherDisplay:10.37,2013-03-28 18:00:00,
2013-03-28 12:05:00,69.6,16.5,29.77,WSW,248,2.6,2.6,13,0.00,CLR,,0.00,WeatherDisplay:10.37,2013-03-28 18:05:00,
2013-03-28 12:10:00,69.4,16.4,29.77,NW,315,4.6,4.6,13,0.00,CLR,,0.00,WeatherDisplay:10.37,2013-03-28 18:10:00,
2013-03-28 12:15:00,69.8,16.7,29.76,SW,225,2.3,2.3,13,0.00,CLR,,0.00,WeatherDisplay:10.37,2013-03-28 18:15:00,
2013-03-28 12:20:00,70.2,18.7,29.76,WSW,248,2.3,2.3,14,0.00,CLR,,0.00,WeatherDisplay:10.37,2013-03-28 18:20:00,
2013-03-28 12:25:00,71.4,18.0,29.76,SSW,202,4.6,5.4,13,0.00,CLR,,0.00,WeatherDisplay:10.37,2013-03-28 18:25:00,
2013-03-28 12:30:00,71.4,18.0,29.76,SSE,158,5.8,5.8,13,0.00,CLR,,0.00,WeatherDisplay:10.37,2013-03-28 18:30:00,
2013-03-28 12:35:00,71.6,16.2,29.76,West,270,2.4,2.4,12,0.00,CLR,,0.00,WeatherDisplay:10.37,2013-03-28 18:35:00,
2013-03-28 12:40:00,71.2,16.0,29.76,West,270,6.9,6.9,12,0.00,CLR,,0.00,WeatherDisplay:10.37,2013-03-28 18:40:00,
2013-03-28 12:45:00,70.9,15.7,29.76,NW,315,4.6,4.6,12,0.00,CLR,,0.00,WeatherDisplay:10.37,2013-03-28 18:45:00,
2013-03-28 12:50:00,71.2,17.8,29.76,NNW,338,4.6,4.7,13,0.00,CLR,,0.00,WeatherDisplay:10.37,2013-03-28 18:50:00,
2013-03-28 12:55:00,71.8,16.4,29.76,SW,225,4.6,4.6,12,0.00,CLR,,0.00,WeatherDisplay:10.37,2013-03-28 18:55:00,
2013-03-28 13:00:00,72.3,16.8,29.76,WSW,248,5.4,5.4,12,0.00,CLR,,0.00,WeatherDisplay:10.37,2013-03-28 19:00:00,
2013-03-28 13:05:00,72.5,16.9,29.76,SSW,202,3.6,3.6,12,0.00,CLR,,0.00,WeatherDisplay:10.37,2013-03-28 19:05:00,
2013-03-28 13:10:00,72.7,17.1,29.75,SW,225,5.8,5.8,12,0.00,CLR,,0.00,WeatherDisplay:10.37,2013-03-28 19:10:00,
2013-03-28 13:15:00,73.8,17.9,29.75,WSW,248,5.4,5.4,12,0.00,CLR,,0.00,WeatherDisplay:10.37,2013-03-28 19:15:00,
2013-03-28 13:20:00,74.1,14.0,29.75,West,270,4.6,4.6,10,0.00,CLR,,0.00,WeatherDisplay:10.37,2013-03-28 19:20:00,
2013-03-28 13:25:00,73.8,15.9,29.75,West,270,8.1,8.5,11,0.00,CLR,,0.00,WeatherDisplay:10.37,2013-03-28 19:25:00,
2013-03-28 13:30:00,73.0,13.2,29.74,SW,225,10.4,10.4,10,0.00,CLR,,0.00,WeatherDisplay:10.37,2013-03-28 19:30:00,
2013-03-28 13:35:00,72.5,14.9,29.75,NNE,22,4.6,4.6,11,0.00,CLR,,0.00,WeatherDisplay:10.37,2013-03-28 19:35:00,
2013-03-28 13:40:00,72.9,15.2,29.75,WSW,248,5.8,5.8,11,0.00,CLR,,0.00,WeatherDisplay:10.37,2013-03-28 19:40:00,
2013-03-28 13:45:00,72.5,14.9,29.74,SW,225,11.8,11.8,11,0.00,CLR,,0.00,WeatherDisplay:10.37,2013-03-28 19:45:00,
2013-03-28 13:50:00,72.0,14.5,29.74,WSW,248,6.9,6.9,11,0.00,CLR,,0.00,WeatherDisplay:10.37,2013-03-28 19:50:00,
2013-03-28 13:55:00,72.7,17.1,29.74,WSW,248,3.5,3.5,12,0.00,CLR,,0.00,WeatherDisplay:10.37,2013-03-28 19:55:00,
2013-03-28 14:00:00,73.2,15.5,29.74,SW,225,9.2,9.2,11,0.00,CLR,,0.00,WeatherDisplay:10.37,2013-03-28 20:00:00,
2013-03-28 14:05:00,73.0,17.4,29.74,WSW,248,7.6,7.6,12,0.00,CLR,,0.00,WeatherDisplay:10.37,2013-03-28 20:05:00,
2013-03-28 14:10:00,72.0,16.5,29.74,SW,225,8.1,8.1,12,0.00,CLR,,0.00,WeatherDisplay:10.37,2013-03-28 20:10:00,
2013-03-28 14:16:00,71.2,16.0,29.74,SSW,202,6.7,6.7,12,0.00,CLR,,0.00,WeatherDisplay:10.37,2013-03-28 20:16:00,
2013-03-28 14:21:00,70.9,17.5,29.74,WSW,248,6.9,6.9,13,0.00,CLR,,0.00,WeatherDisplay:10.37,2013-03-28 20:21:00,
2013-03-28 14:26:00,70.7,17.4,29.74,West,270,4.6,4.6,13,0.00,CLR,,0.00,WeatherDisplay:10.37,2013-03-28 20:26:00,
2013-03-28 14:31:00,70.9,15.7,29.73,WSW,248,2.3,2.6,12,0.00,CLR,,0.00,WeatherDisplay:10.37,2013-03-28 20:31:00,
2013-03-28 14:36:00,70.7,17.4,29.73,WSW,248,3.5,3.5,13,0.00,CLR,,0.00,WeatherDisplay:10.37,2013-03-28 20:36:00,
2013-03-28 14:41:00,70.9,17.5,29.72,WSW,248,4.0,4.0,13,0.00,CLR,,0.00,WeatherDisplay:10.37,2013-03-28 20:41:00,
2013-03-28 14:47:00,71.2,17.8,29.72,SSW,202,6.0,6.0,13,0.00,CLR,,0.00,WeatherDisplay:10.37,2013-03-28 20:47:00,
2013-03-28 14:52:00,72.0,18.4,29.72,SSE,158,8.1,8.1,13,0.00,CLR,,0.00,WeatherDisplay:10.37,2013-03-28 20:52:00,
2013-03-28 14:57:00,72.5,18.8,29.72,SSW,202,3.5,3.5,13,0.00,CLR,,0.00,WeatherDisplay:10.37,2013-03-28 20:57:00,
2013-03-28 15:02:00,73.0,19.2,29.71,SW,225,5.8,5.8,13,0.00,CLR,,0.00,WeatherDisplay:10.37,2013-03-28 21:02:00,
2013-03-28 15:07:00,73.4,19.5,29.71,SSW,202,5.8,5.8,13,0.00,CLR,,0.00,WeatherDisplay:10.37,2013-03-28 21:07:00,
2013-03-28 15:12:00,74.1,18.2,29.71,SSW,202,2.3,2.3,12,0.00,CLR,,0.00,WeatherDisplay:10.37,2013-03-28 21:12:00,
2013-03-28 15:17:00,75.0,20.8,29.71,SSE,158,3.8,3.8,13,0.00,CLR,,0.00,WeatherDisplay:10.37,2013-03-28 21:17:00,
2013-03-28 15:22:00,75.6,19.3,29.71,SW,225,5.8,5.8,12,0.00,CLR,,0.00,WeatherDisplay:10.37,2013-03-28 21:22:00,
2013-03-28 15:27:00,75.2,19.1,29.71,WSW,248,4.6,4.6,12,0.00,CLR,,0.00,WeatherDisplay:10.37,2013-03-28 21:27:00,
2013-03-28 15:32:00,74.8,18.8,29.71,SSW,202,4.6,4.6,12,0.00,CLR,,0.00,WeatherDisplay:10.37,2013-03-28 21:32:00,
2013-03-28 15:37:00,74.5,18.5,29.70,West,270,2.3,2.4,12,0.00,CLR,,0.00,WeatherDisplay:10.37,2013-03-28 21:37:00,
2013-03-28 15:42:00,73.9,18.1,29.70,SW,225,4.6,4.6,12,0.00,CLR,,0.00,WeatherDisplay:10.37,2013-03-28 21:42:00,
2013-03-28 15:47:00,73.8,17.9,29.70,SSW,202,5.8,5.8,12,0.00,CLR,,0.00,WeatherDisplay:10.37,2013-03-28 21:47:00,
2013-03-28 15:52:00,73.6,19.7,29.70,WSW,248,2.4,2.4,13,0.00,CLR,,0.00,WeatherDisplay:10.37,2013-03-28 21:52:00,
2013-03-28 15:57:00,73.6,17.8,29.70,SW,225,8.1,8.1,12,0.00,CLR,,0.00,WeatherDisplay:10.37,2013-03-28 21:57:00,
2013-03-28 16:02:00,73.2,17.5,29.70,SW,225,1.2,2.0,12,0.00,CLR,,0.00,WeatherDisplay:10.37,2013-03-28 22:02:00,
2013-03-28 16:07:00,73.0,17.4,29.69,SSW,202,8.1,8.1,12,0.00,CLR,,0.00,WeatherDisplay:10.37,2013-03-28 22:07:00,
2013-03-28 16:12:00,72.9,17.2,29.69,WSW,248,5.8,5.8,12,0.00,CLR,,0.00,WeatherDisplay:10.37,2013-03-28 22:12:00,
2013-03-28 16:17:00,72.5,18.8,29.69,WSW,248,7.1,7.1,13,0.00,CLR,,0.00,WeatherDisplay:10.37,2013-03-28 22:17:00,
2013-03-28 16:22:00,72.1,18.5,29.70,West,270,10.4,10.4,13,0.00,CLR,,0.00,WeatherDisplay:10.37,2013-03-28 22:22:00,
2013-03-28 16:27:00,72.0,18.4,29.69,WSW,248,3.5,3.5,13,0.00,CLR,,0.00,WeatherDisplay:10.37,2013-03-28 22:27:00,
2013-03-28 16:32:00,71.6,18.1,29.69,SSW,202,6.9,6.9,13,0.00,CLR,,0.00,WeatherDisplay:10.37,2013-03-28 22:32:00,
2013-03-28 16:37:00,71.6,18.1,29.69,SW,225,3.1,3.1,13,0.00,CLR,,0.00,WeatherDisplay:10.37,2013-03-28 22:37:00,
2013-03-28 16:42:00,71.4,18.0,29.69,SW,225,1.6,1.6,13,0.00,CLR,,0.00,WeatherDisplay:10.37,2013-03-28 22:42:00,
2013-03-28 16:47:00,71.4,18.0,29.69,SW,225,2.4,2.4,13,0.00,CLR,,0.00,WeatherDisplay:10.37,2013-03-28 22:47:00,
2013-03-28 16:52:00,71.6,19.8,29.69,SSW,202,2.3,2.3,14,0.00,CLR,,0.00,WeatherDisplay:10.37,2013-03-28 22:52:00,
2013-03-28 16:57:00,71.8,21.6,29.69,SW,225,3.5,3.5,15,0.00,CLR,,0.00,WeatherDisplay:10.37,2013-03-28 22:57:00,
2013-03-28 17:02:00,72.3,18.7,29.69,NW,315,6.2,6.2,13,0.00,CLR,,0.00,WeatherDisplay:10.37,2013-03-28 23:02:00,
2013-03-28 17:07:00,72.3,18.7,29.69,WSW,248,4.3,4.3,13,0.00,CLR,,0.00,WeatherDisplay:10.37,2013-03-28 23:07:00,
2013-03-28 17:12:00,72.3,18.7,29.69,WSW,248,5.9,5.9,13,0.00,CLR,,0.00,WeatherDisplay:10.37,2013-03-28 23:12:00,
2013-03-28 17:17:00,72.0,18.4,29.69,SW,225,4.6,4.7,13,0.00,CLR,,0.00,WeatherDisplay:10.37,2013-03-28 23:17:00,
2013-03-28 17:22:00,71.6,18.1,29.69,West,270,6.2,6.2,13,0.00,CLR,,0.00,WeatherDisplay:10.37,2013-03-28 23:22:00,
2013-03-28 17:27:00,71.6,18.1,29.69,South,180,4.0,4.0,13,0.00,CLR,,0.00,WeatherDisplay:10.37,2013-03-28 23:27:00,
2013-03-28 17:32:00,71.6,18.1,29.69,SW,225,3.5,3.5,13,0.00,CLR,,0.00,WeatherDisplay:10.37,2013-03-28 23:32:00,
2013-03-28 17:37:00,71.6,18.1,29.69,SW,225,5.8,5.8,13,0.00,CLR,,0.00,WeatherDisplay:10.37,2013-03-28 23:37:00,
2013-03-28 17:42:00,71.2,17.8,29.69,SSW,202,11.5,11.8,13,0.00,CLR,,0.00,WeatherDisplay:10.37,2013-03-28 23:42:00,
2013-03-28 17:47:00,70.2,17.0,29.69,WSW,248,6.9,6.9,13,0.00,CLR,,0.00,WeatherDisplay:10.37,2013-03-28 23:47:00,
2013-03-28 17:52:00,70.0,20.2,29.69,WSW,248,2.4,2.4,15,0.00,CLR,,0.00,WeatherDisplay:10.37,2013-03-28 23:52:00,
2013-03-28 17:57:00,69.8,20.0,29.69,SW,225,2.4,2.4,15,0.00,CLR,,0.00,WeatherDisplay:10.37,2013-03-28 23:57:00,
2013-03-28 18:02:00,69.6,19.9,29.69,West,270,1.2,1.2,15,0.00,CLR,,0.00,WeatherDisplay:10.37,2013-03-29 00:02:00,
2013-03-28 18:07:00,69.4,19.7,29.69,NNW,338,1.4,1.4,15,0.00,CLR,,0.00,WeatherDisplay:10.37,2013-03-29 00:07:00,
2013-03-28 18:12:00,69.4,19.7,29.69,NNW,338,0.0,0.5,15,0.00,CLR,,0.00,WeatherDisplay:10.37,2013-03-29 00:12:00,
2013-03-28 18:17:00,69.1,19.4,29.70,NW,315,1.2,1.2,15,0.00,CLR,,0.00,WeatherDisplay:10.37,2013-03-29 00:17:00,
2013-03-28 18:22:00,68.7,19.1,29.70,WSW,248,5.8,5.8,15,0.00,CLR,,0.00,WeatherDisplay:10.37,2013-03-29 00:22:00,
2013-03-28 18:27:00,68.5,19.0,29.70,NW,315,3.1,3.1,15,0.00,CLR,,0.00,WeatherDisplay:10.37,2013-03-29 00:27:00,
2013-03-28 18:32:00,68.4,18.9,29.70,WSW,248,3.5,3.5,15,0.00,CLR,,0.00,WeatherDisplay:10.37,2013-03-29 00:32:00,
2013-03-28 18:37:00,68.2,20.2,29.70,WSW,248,2.3,2.4,16,0.00,CLR,,0.00,WeatherDisplay:10.37,2013-03-29 00:37:00,
2013-03-28 18:42:00,68.0,18.6,29.71,SW,225,2.3,2.3,15,0.00,CLR,,0.00,WeatherDisplay:10.37,2013-03-29 00:42:00,
2013-03-28 18:47:00,67.8,18.4,29.71,South,180,5.8,5.8,15,0.00,CLR,,0.00,WeatherDisplay:10.37,2013-03-29 00:47:00,
2013-03-28 18:52:00,67.3,19.5,29.72,WSW,248,9.2,9.2,16,0.00,CLR,,0.00,WeatherDisplay:10.37,2013-03-29 00:52:00,
2013-03-28 18:57:00,67.1,20.8,29.72,WSW,248,4.6,4.9,17,0.00,CLR,,0.00,WeatherDisplay:10.37,2013-03-29 00:57:00,
2013-03-28 19:02:00,66.9,20.6,29.73,South,180,4.6,4.6,17,0.00,CLR,,0.00,WeatherDisplay:10.37,2013-03-29 01:02:00,
2013-03-28 19:21:00,66.0,22.5,29.73,WNW,292,3.6,3.6,19,0.00,CLR,,0.00,WeatherDisplay:10.37,2013-03-29 01:21:00,
2013-03-28 19:30:00,65.3,24.3,29.74,SW,225,7.1,7.1,21,0.00,CLR,,0.00,WeatherDisplay:10.37,2013-03-29 01:30:00,
2013-03-28 19:35:00,65.1,24.2,29.75,SW,225,3.6,3.6,21,0.00,CLR,,0.00,WeatherDisplay:10.37,2013-03-29 01:35:00,
2013-03-28 20:21:00,63.9,24.2,29.71,East,90,3.8,3.8,22,0.00,CLR,,0.00,WeatherDisplay:10.37,2013-03-29 02:21:00,
2013-03-28 20:26:00,63.7,24.1,29.72,ENE,68,5.2,5.2,22,0.00,CLR,,0.00,WeatherDisplay:10.37,2013-03-29 02:26:00,
2013-03-28 20:31:00,63.7,24.1,29.72,NW,315,3.5,3.5,22,0.00,CLR,,0.00,WeatherDisplay:10.37,2013-03-29 02:31:00,
2013-03-28 20:36:00,63.5,23.9,29.73,NE,45,2.3,2.3,22,0.00,CLR,,0.00,WeatherDisplay:10.37,2013-03-29 02:36:00,
2013-03-28 20:41:00,63.3,23.8,29.73,East,90,1.2,1.2,22,0.00,CLR,,0.00,WeatherDisplay:10.37,2013-03-29 02:41:00,
2013-03-28 20:47:00,63.0,23.5,29.73,East,90,1.2,1.2,22,0.00,CLR,,0.00,WeatherDisplay:10.37,2013-03-29 02:47:00,
2013-03-28 20:52:00,62.8,23.3,29.73,ESE,112,1.2,1.2,22,0.00,CLR,,0.00,WeatherDisplay:10.37,2013-03-29 02:52:00,
2013-03-28 20:57:00,62.6,23.2,29.74,ESE,112,0.0,0.0,22,0.00,CLR,,0.00,WeatherDisplay:10.37,2013-03-29 02:57:00,
2013-03-28 21:02:00,62.2,22.9,29.74,ESE,112,0.0,0.0,22,0.00,CLR,,0.00,WeatherDisplay:10.37,2013-03-29 03:02:00,
2013-03-28 21:07:00,61.9,22.6,29.73,ESE,112,1.2,1.2,22,0.00,CLR,,0.00,WeatherDisplay:10.37,2013-03-29 03:07:00,
2013-03-28 21:12:00,61.7,22.4,29.74,SSW,202,1.2,0.0,22,0.00,CLR,,0.00,WeatherDisplay:10.37,2013-03-29 03:12:00,
2013-03-28 21:17:00,61.7,22.4,29.74,SW,225,0.2,0.2,22,0.00,CLR,,0.00,WeatherDisplay:10.37,2013-03-29 03:17:00,
2013-03-28 21:22:00,61.5,22.3,29.74,South,180,0.0,0.0,22,0.00,CLR,,0.00,WeatherDisplay:10.37,2013-03-29 03:22:00,
2013-03-28 21:27:00,61.3,21.0,29.74,SSE,158,0.5,0.5,21,0.00,CLR,,0.00,WeatherDisplay:10.37,2013-03-29 03:27:00,
2013-03-28 21:32:00,61.5,22.3,29.74,South,180,9.2,9.2,22,0.00,CLR,,0.00,WeatherDisplay:10.37,2013-03-29 03:32:00,
2013-03-28 21:37:00,62.1,23.8,29.74,South,180,4.6,4.6,23,0.00,CLR,,0.00,WeatherDisplay:10.37,2013-03-29 03:37:00,
2013-03-28 21:42:00,62.2,22.9,29.75,South,180,5.9,5.9,22,0.00,CLR,,0.00,WeatherDisplay:10.37,2013-03-29 03:42:00,
2013-03-28 21:47:00,62.2,23.9,29.75,SW,225,5.8,5.8,23,0.00,CLR,,0.00,WeatherDisplay:10.37,2013-03-29 03:47:00,
2013-03-28 21:52:00,62.2,23.9,29.75,SSW,202,4.6,4.6,23,0.00,CLR,,0.00,WeatherDisplay:10.37,2013-03-29 03:52:00,
2013-03-28 21:58:00,62.1,22.7,29.75,SE,135,2.3,2.3,22,0.00,CLR,,0.00,WeatherDisplay:10.37,2013-03-29 03:58:00,
2013-03-28 22:00:00,62.1,22.7,29.76,SSE,158,2.3,2.3,22,0.00,CLR,,0.00,WeatherDisplay:10.37,2013-03-29 04:00:00,
2013-03-28 22:05:00,61.9,22.6,29.75,SW,225,3.5,4.0,22,0.00,CLR,,0.00,WeatherDisplay:10.37,2013-03-29 04:05:00,
2013-03-28 22:10:00,61.5,22.3,29.75,SSE,158,4.6,4.6,22,0.00,CLR,,0.00,WeatherDisplay:10.37,2013-03-29 04:10:00,
2013-03-28 22:15:00,61.5,21.2,29.75,SE,135,1.2,1.2,21,0.00,CLR,,0.00,WeatherDisplay:10.37,2013-03-29 04:15:00,
2013-03-28 22:20:00,61.2,20.9,29.76,SSE,158,3.5,3.5,21,0.00,CLR,,0.00,WeatherDisplay:10.37,2013-03-29 04:20:00,
2013-03-28 22:25:00,60.8,21.7,29.76,SSE,158,0.0,0.0,22,0.00,CLR,,0.00,WeatherDisplay:10.37,2013-03-29 04:25:00,
2013-03-28 22:30:00,60.4,21.4,29.75,SW,225,0.0,0.0,22,0.00,CLR,,0.00,WeatherDisplay:10.37,2013-03-29 04:30:00,
2013-03-28 22:35:00,60.1,21.1,29.75,SE,135,0.0,0.0,22,0.00,CLR,,0.00,WeatherDisplay:10.37,2013-03-29 04:35:00,
2013-03-28 22:40:00,59.5,20.6,29.75,SE,135,0.0,0.0,22,0.00,CLR,,0.00,WeatherDisplay:10.37,2013-03-29 04:40:00,
2013-03-28 22:45:00,59.0,20.2,29.75,SE,135,0.0,0.0,22,0.00,CLR,,0.00,WeatherDisplay:10.37,2013-03-29 04:45:00,
2013-03-28 22:50:00,58.6,19.9,29.75,SE,135,0.0,0.0,22,0.00,CLR,,0.00,WeatherDisplay:10.37,2013-03-29 04:50:00,
2013-03-28 22:55:00,58.1,20.4,29.76,SE,135,0.0,0.0,23,0.00,CLR,,0.00,WeatherDisplay:10.37,2013-03-29 04:55:00,
2013-03-28 23:00:00,57.7,20.1,29.76,SE,135,0.0,0.0,23,0.00,CLR,,0.00,WeatherDisplay:10.37,2013-03-29 05:00:00,
2013-03-28 23:05:00,57.2,19.7,29.75,SE,135,0.0,0.0,23,0.00,CLR,,0.00,WeatherDisplay:10.37,2013-03-29 05:05:00,
2013-03-28 23:10:00,57.0,20.5,29.75,SE,135,0.0,0.0,24,0.00,CLR,,0.00,WeatherDisplay:10.37,2013-03-29 05:10:00,
2013-03-28 23:15:00,56.7,21.2,29.75,ESE,112,1.2,1.2,25,0.00,CLR,,0.00,WeatherDisplay:10.37,2013-03-29 05:15:00,
2013-03-28 23:20:00,56.7,21.2,29.75,ESE,112,0.2,0.2,25,0.00,CLR,,0.00,WeatherDisplay:10.37,2013-03-29 05:20:00,
2013-03-28 23:25:00,56.3,21.8,29.75,ESE,112,0.2,0.2,26,0.00,CLR,,0.00,WeatherDisplay:10.37,2013-03-29 05:25:00,
2013-03-28 23:30:00,56.1,22.6,29.76,ESE,112,0.0,0.0,27,0.00,CLR,,0.00,WeatherDisplay:10.37,2013-03-29 05:30:00,
2013-03-28 23:35:00,55.8,22.2,29.76,ESE,112,0.0,0.0,27,0.00,CLR,,0.00,WeatherDisplay:10.37,2013-03-29 05:35:00,
2013-03-28 23:40:00,55.8,22.2,29.75,ESE,112,0.0,0.0,27,0.00,CLR,,0.00,WeatherDisplay:10.37,2013-03-29 05:40:00,
2013-03-28 23:45:00,55.6,22.1,29.76,ESE,112,0.0,0.0,27,0.00,CLR,,0.00,WeatherDisplay:10.37,2013-03-29 05:45:00,
2013-03-28 23:50:00,55.2,21.8,29.76,ESE,112,0.0,0.0,27,0.00,CLR,,0.00,WeatherDisplay:10.37,2013-03-29 05:50:00,
2013-03-28 23:55:00,55.0,21.6,29.76,ESE,112,0.0,0.0,27,0.00,CLR,,0.00,WeatherDisplay:10.37,2013-03-29 05:55:00,